{"data":{"norad_id":65248,"intl_designator":"2025-179P","name":"STARLINK-34962","alt_names":[],"object_type":"PAYLOAD","status":"ACTIVE","operator":null,"country":"US","launch_date":"2025-08-18","launch_site_code":"AFWTR","launch_vehicle":null,"mission":null,"orbit_class":"UNKNOWN","rcs_meters":null,"size_class":null,"mass_kg":null,"dimensions":null,"purposes":["comms"],"wikipedia_slug":null,"has_3d_model":false,"image_url":null,"decayed_at":null,"tle_current":{"epoch":"2026-09-20T15:55:51.448224Z","epoch_age_seconds":103375,"freshness":"FRESH","line1":"1 65248U 25179P   26263.66378991  .00014092  00000+0  43799-3 0  9997","line2":"2 65248  97.2848 302.9196 0000968 102.6413 257.4938 15.33447292 61347","mean_motion":15.33447292,"eccentricity":9.68e-5,"inclination_deg":97.2848,"raan_deg":302.9196,"arg_perigee_deg":102.6413,"mean_anomaly_deg":257.4938,"bstar":0.00043799,"rev_number":6134,"period_min":93.906064297905,"perigee_km":464.87388752641,"apogee_km":466.19882268796,"semimajor_km":6843.6733551072,"source":"CELESTRAK","updated_at":"2026-09-21T09:00:35.560452Z"}}}